Year,Month,Day,Hour,Minute,Value (Times are PST for temperature in C)
2015,07,04,00,00,20.10
2015,07,04,00,01,20.00
2015,07,04,00,02,19.90
2015,07,04,00,03,19.80
2015,07,04,00,04,19.60
2015,07,04,00,05,19.50
2015,07,04,00,06,19.40
2015,07,04,00,07,19.40
2015,07,04,00,08,19.30
2015,07,04,00,09,19.10
2015,07,04,00,10,19.00
2015,07,04,00,11,18.90
2015,07,04,00,12,18.80
2015,07,04,00,13,18.70
2015,07,04,00,14,18.60
2015,07,04,00,15,18.50
2015,07,04,00,16,18.40
2015,07,04,00,17,18.30
2015,07,04,00,18,18.20
2015,07,04,00,19,18.20
2015,07,04,00,20,18.10
2015,07,04,00,21,18.10
2015,07,04,00,22,18.10
2015,07,04,00,23,18.10
2015,07,04,00,24,18.10
2015,07,04,00,25,18.00
2015,07,04,00,26,17.90
2015,07,04,00,27,17.90
2015,07,04,00,28,17.80
2015,07,04,00,29,17.70
2015,07,04,00,30,17.50
2015,07,04,00,31,17.40
2015,07,04,00,32,17.30
2015,07,04,00,33,17.10
2015,07,04,00,34,16.90
2015,07,04,00,35,16.80
2015,07,04,00,36,16.70
2015,07,04,00,37,16.50
2015,07,04,00,38,16.40
2015,07,04,00,39,16.30
2015,07,04,00,40,16.20
2015,07,04,00,41,16.10
2015,07,04,00,42,16.10
2015,07,04,00,43,16.00
2015,07,04,00,44,15.90
2015,07,04,00,45,15.90
2015,07,04,00,46,15.80
2015,07,04,00,47,15.80
2015,07,04,00,48,15.80
2015,07,04,00,49,15.70
2015,07,04,00,50,15.60
2015,07,04,00,51,15.60
2015,07,04,00,52,15.50
2015,07,04,00,53,15.50
2015,07,04,00,54,15.40
2015,07,04,00,55,15.30
2015,07,04,00,56,15.30
2015,07,04,00,57,15.30
2015,07,04,00,58,15.20
2015,07,04,00,59,15.10
2015,07,04,01,00,15.10
2015,07,04,01,01,15.10
2015,07,04,01,02,15.10
2015,07,04,01,03,15.10
2015,07,04,01,04,15.10
2015,07,04,01,05,15.10
2015,07,04,01,06,15.20
2015,07,04,01,07,15.20
2015,07,04,01,08,15.20
2015,07,04,01,09,15.30
2015,07,04,01,10,15.30
2015,07,04,01,11,15.40
2015,07,04,01,12,15.40
2015,07,04,01,13,15.50
2015,07,04,01,14,15.60
2015,07,04,01,15,15.70
2015,07,04,01,16,15.80
2015,07,04,01,17,15.80
2015,07,04,01,18,15.90
2015,07,04,01,19,16.00
2015,07,04,01,20,16.10
2015,07,04,01,21,16.10
2015,07,04,01,22,16.10
2015,07,04,01,23,16.10
2015,07,04,01,24,16.10
2015,07,04,01,25,16.10
2015,07,04,01,26,16.10
2015,07,04,01,27,16.10
2015,07,04,01,28,16.00
2015,07,04,01,29,15.90
2015,07,04,01,30,15.90
2015,07,04,01,31,15.80
2015,07,04,01,32,15.80
2015,07,04,01,33,15.80
2015,07,04,01,34,15.80
2015,07,04,01,35,15.70
2015,07,04,01,36,15.70
2015,07,04,01,37,15.70
2015,07,04,01,38,15.70
2015,07,04,01,39,15.70
2015,07,04,01,40,15.70
2015,07,04,01,41,15.70
2015,07,04,01,42,15.70
2015,07,04,01,43,15.70
2015,07,04,01,44,15.70
2015,07,04,01,45,15.60
2015,07,04,01,46,15.60
2015,07,04,01,47,15.60
2015,07,04,01,48,15.60
2015,07,04,01,49,15.50
2015,07,04,01,50,15.40
2015,07,04,01,51,15.40
2015,07,04,01,52,15.30
2015,07,04,01,53,15.30
2015,07,04,01,54,15.20
2015,07,04,01,55,15.10
2015,07,04,01,56,15.10
2015,07,04,01,57,15.10
2015,07,04,01,58,15.10
2015,07,04,01,59,15.00
2015,07,04,02,00,15.00
2015,07,04,02,01,15.00
2015,07,04,02,02,15.00
2015,07,04,02,03,15.00
2015,07,04,02,04,15.00
2015,07,04,02,05,15.00
2015,07,04,02,06,14.90
2015,07,04,02,07,14.90
2015,07,04,02,08,14.80
2015,07,04,02,09,14.80
2015,07,04,02,10,14.80
2015,07,04,02,11,14.80
2015,07,04,02,12,14.80
2015,07,04,02,13,14.80
2015,07,04,02,14,14.80
2015,07,04,02,15,14.80
2015,07,04,02,16,14.80
2015,07,04,02,17,14.80
2015,07,04,02,18,14.80
2015,07,04,02,19,14.80
2015,07,04,02,20,14.80
2015,07,04,02,21,14.80
2015,07,04,02,22,14.90
2015,07,04,02,23,14.90
2015,07,04,02,24,15.00
2015,07,04,02,25,15.00
2015,07,04,02,26,15.10
2015,07,04,02,27,15.20
2015,07,04,02,28,15.30
2015,07,04,02,29,15.30
2015,07,04,02,30,15.40
2015,07,04,02,31,15.50
2015,07,04,02,32,15.60
2015,07,04,02,33,15.60
2015,07,04,02,34,15.70
2015,07,04,02,35,15.80
2015,07,04,02,36,15.80
2015,07,04,02,37,15.80
2015,07,04,02,38,15.80
2015,07,04,02,39,15.90
2015,07,04,02,40,15.90
2015,07,04,02,41,16.00
2015,07,04,02,42,16.10
2015,07,04,02,43,16.20
2015,07,04,02,44,16.30
2015,07,04,02,45,16.40
2015,07,04,02,46,16.40
2015,07,04,02,47,16.40
2015,07,04,02,48,16.50
2015,07,04,02,49,16.60
2015,07,04,02,50,16.60
2015,07,04,02,51,16.60
2015,07,04,02,52,16.70
2015,07,04,02,53,16.70
2015,07,04,02,54,16.60
2015,07,04,02,55,16.60
2015,07,04,02,56,16.60
2015,07,04,02,57,16.50
2015,07,04,02,58,16.40
2015,07,04,02,59,16.40
2015,07,04,03,00,16.40
2015,07,04,03,01,16.40
2015,07,04,03,02,16.40
2015,07,04,03,03,16.40
2015,07,04,03,04,16.40
2015,07,04,03,05,16.40
2015,07,04,03,06,16.40
2015,07,04,03,07,16.40
2015,07,04,03,08,16.40
2015,07,04,03,09,16.40
2015,07,04,03,10,16.40
2015,07,04,03,11,16.40
2015,07,04,03,12,16.40
2015,07,04,03,13,16.30
2015,07,04,03,14,16.30
2015,07,04,03,15,16.20
2015,07,04,03,16,16.20
2015,07,04,03,17,16.10
2015,07,04,03,18,16.10
2015,07,04,03,19,16.10
2015,07,04,03,20,16.00
2015,07,04,03,21,15.90
2015,07,04,03,22,15.90
2015,07,04,03,23,15.80
2015,07,04,03,24,15.80
2015,07,04,03,25,15.90
2015,07,04,03,26,16.10
2015,07,04,03,27,16.10
2015,07,04,03,28,16.20
2015,07,04,03,29,16.20
2015,07,04,03,30,16.10
2015,07,04,03,31,16.10
2015,07,04,03,32,16.10
2015,07,04,03,33,16.10
2015,07,04,03,34,16.10
2015,07,04,03,35,16.10
2015,07,04,03,36,16.10
2015,07,04,03,37,16.10
2015,07,04,03,38,16.00
2015,07,04,03,39,15.90
2015,07,04,03,40,15.90
2015,07,04,03,41,15.80
2015,07,04,03,42,15.80
2015,07,04,03,43,15.80
2015,07,04,03,44,15.80
2015,07,04,03,45,15.80
2015,07,04,03,46,15.70
2015,07,04,03,47,15.70
2015,07,04,03,48,15.60
2015,07,04,03,49,15.50
2015,07,04,03,50,15.50
2015,07,04,03,51,15.50
2015,07,04,03,52,15.40
2015,07,04,03,53,15.30
2015,07,04,03,54,15.30
2015,07,04,03,55,15.30
2015,07,04,03,56,15.30
2015,07,04,03,57,15.30
2015,07,04,03,58,15.30
2015,07,04,03,59,15.30
2015,07,04,04,00,15.30
2015,07,04,04,01,15.30
2015,07,04,04,02,15.30
2015,07,04,04,03,15.20
2015,07,04,04,04,15.20
2015,07,04,04,05,15.30
2015,07,04,04,06,15.30
2015,07,04,04,07,15.30
2015,07,04,04,08,15.30
2015,07,04,04,09,15.30
2015,07,04,04,10,15.30
2015,07,04,04,11,15.30
2015,07,04,04,12,15.20
2015,07,04,04,13,15.20
2015,07,04,04,14,15.20
2015,07,04,04,15,15.20
2015,07,04,04,16,15.20
2015,07,04,04,17,15.20
2015,07,04,04,18,15.20
2015,07,04,04,19,15.30
2015,07,04,04,20,15.30
2015,07,04,04,21,15.30
2015,07,04,04,22,15.30
2015,07,04,04,23,15.30
2015,07,04,04,24,15.30
2015,07,04,04,25,15.30
2015,07,04,04,26,15.30
2015,07,04,04,27,15.30
2015,07,04,04,28,15.30
2015,07,04,04,29,15.30
2015,07,04,04,30,15.20
2015,07,04,04,31,15.20
2015,07,04,04,32,15.10
2015,07,04,04,33,15.10
2015,07,04,04,34,15.10
2015,07,04,04,35,15.00
2015,07,04,04,36,15.00
2015,07,04,04,37,15.00
2015,07,04,04,38,14.90
2015,07,04,04,39,14.90
2015,07,04,04,40,14.90
2015,07,04,04,41,14.90
2015,07,04,04,42,14.90
2015,07,04,04,43,14.90
2015,07,04,04,44,14.90
2015,07,04,04,45,15.00
2015,07,04,04,46,15.00
2015,07,04,04,47,15.00
2015,07,04,04,48,14.90
2015,07,04,04,49,14.90
2015,07,04,04,50,14.80
2015,07,04,04,51,14.80
2015,07,04,04,52,14.70
2015,07,04,04,53,14.60
2015,07,04,04,54,14.60
2015,07,04,04,55,14.50
2015,07,04,04,56,14.50
2015,07,04,04,57,14.40
2015,07,04,04,58,14.30
2015,07,04,04,59,14.20
2015,07,04,05,00,14.20
2015,07,04,05,01,14.20
2015,07,04,05,02,14.20
2015,07,04,05,03,14.20
2015,07,04,05,04,14.20
2015,07,04,05,05,14.20
2015,07,04,05,06,14.20
2015,07,04,05,07,14.20
2015,07,04,05,08,14.20
2015,07,04,05,09,14.20
2015,07,04,05,10,14.20
2015,07,04,05,11,14.20
2015,07,04,05,12,14.20
2015,07,04,05,13,14.20
2015,07,04,05,14,14.30
2015,07,04,05,15,14.30
2015,07,04,05,16,14.30
2015,07,04,05,17,14.30
2015,07,04,05,18,14.30
2015,07,04,05,19,14.30
2015,07,04,05,20,14.30
2015,07,04,05,21,14.30
2015,07,04,05,22,14.30
2015,07,04,05,23,14.30
2015,07,04,05,24,14.30
2015,07,04,05,25,14.30
2015,07,04,05,26,14.30
2015,07,04,05,27,14.30
2015,07,04,05,28,14.30
2015,07,04,05,29,14.30
2015,07,04,05,30,14.30
2015,07,04,05,31,14.30
2015,07,04,05,32,14.30
2015,07,04,05,33,14.40
2015,07,04,05,34,14.40
2015,07,04,05,35,14.50
2015,07,04,05,36,14.50
2015,07,04,05,37,14.50
2015,07,04,05,38,14.60
2015,07,04,05,39,14.60
2015,07,04,05,40,14.60
2015,07,04,05,41,14.70
2015,07,04,05,42,14.70
2015,07,04,05,43,14.80
2015,07,04,05,44,14.80
2015,07,04,05,45,14.90
2015,07,04,05,46,15.00
2015,07,04,05,47,15.00
2015,07,04,05,48,15.00
2015,07,04,05,49,15.10
2015,07,04,05,50,15.20
2015,07,04,05,51,15.20
2015,07,04,05,52,15.30
2015,07,04,05,53,15.40
2015,07,04,05,54,15.40
2015,07,04,05,55,15.50
2015,07,04,05,56,15.60
2015,07,04,05,57,15.60
2015,07,04,05,58,15.70
2015,07,04,05,59,15.70
2015,07,04,06,00,15.80
2015,07,04,06,01,15.80
2015,07,04,06,02,15.90
2015,07,04,06,03,16.00
2015,07,04,06,04,16.10
2015,07,04,06,05,16.10
2015,07,04,06,06,16.20
2015,07,04,06,07,16.30
2015,07,04,06,08,16.30
2015,07,04,06,09,16.40
2015,07,04,06,10,16.50
2015,07,04,06,11,16.60
2015,07,04,06,12,16.70
2015,07,04,06,13,16.70
2015,07,04,06,14,16.80
2015,07,04,06,15,16.90
2015,07,04,06,16,16.90
2015,07,04,06,17,17.00
2015,07,04,06,18,17.00
2015,07,04,06,19,17.10
2015,07,04,06,20,17.20
2015,07,04,06,21,17.30
2015,07,04,06,22,17.30
2015,07,04,06,23,17.40
2015,07,04,06,24,17.50
2015,07,04,06,25,17.60
2015,07,04,06,26,17.70
2015,07,04,06,27,17.80
2015,07,04,06,28,17.90
2015,07,04,06,29,17.90
2015,07,04,06,30,18.00
2015,07,04,06,31,18.10
2015,07,04,06,32,18.20
2015,07,04,06,33,18.30
2015,07,04,06,34,18.40
2015,07,04,06,35,18.50
2015,07,04,06,36,18.60
2015,07,04,06,37,18.70
2015,07,04,06,38,18.80
2015,07,04,06,39,18.90
2015,07,04,06,40,19.00
2015,07,04,06,41,19.10
2015,07,04,06,42,19.10
2015,07,04,06,43,19.20
2015,07,04,06,44,19.30
2015,07,04,06,45,19.40
2015,07,04,06,46,19.40
2015,07,04,06,47,19.50
2015,07,04,06,48,19.60
2015,07,04,06,49,19.70
2015,07,04,06,50,19.80
2015,07,04,06,51,19.90
2015,07,04,06,52,19.90
2015,07,04,06,53,20.00
2015,07,04,06,54,20.10
2015,07,04,06,55,20.10
2015,07,04,06,56,20.00
2015,07,04,06,57,19.90
2015,07,04,06,58,19.90
2015,07,04,06,59,19.70
2015,07,04,07,00,19.70
2015,07,04,07,01,19.60
2015,07,04,07,02,19.60
2015,07,04,07,03,19.60
2015,07,04,07,04,19.60
2015,07,04,07,05,19.50
2015,07,04,07,06,19.50
2015,07,04,07,07,19.50
2015,07,04,07,08,19.40
2015,07,04,07,09,19.40
2015,07,04,07,10,19.40
2015,07,04,07,11,19.40
2015,07,04,07,12,19.40
2015,07,04,07,13,19.40
2015,07,04,07,14,19.40
2015,07,04,07,15,19.40
2015,07,04,07,16,19.40
2015,07,04,07,17,19.40
2015,07,04,07,18,19.40
2015,07,04,07,19,19.40
2015,07,04,07,20,19.40
2015,07,04,07,21,19.40
2015,07,04,07,22,19.40
2015,07,04,07,23,19.50
2015,07,04,07,24,19.50
2015,07,04,07,25,19.60
2015,07,04,07,26,19.80
2015,07,04,07,27,19.90
2015,07,04,07,28,20.00
2015,07,04,07,29,20.10
2015,07,04,07,30,20.20
2015,07,04,07,31,20.20
2015,07,04,07,32,20.30
2015,07,04,07,33,20.50
2015,07,04,07,34,20.60
2015,07,04,07,35,20.60
2015,07,04,07,36,20.70
2015,07,04,07,37,20.80
2015,07,04,07,38,20.90
2015,07,04,07,39,21.00
2015,07,04,07,40,21.10
2015,07,04,07,41,21.20
2015,07,04,07,42,21.30
2015,07,04,07,43,21.40
2015,07,04,07,44,21.50
2015,07,04,07,45,21.60
2015,07,04,07,46,21.60
2015,07,04,07,47,21.70
2015,07,04,07,48,21.70
2015,07,04,07,49,21.70
2015,07,04,07,50,21.60
2015,07,04,07,51,21.60
2015,07,04,07,52,21.50
2015,07,04,07,53,21.30
2015,07,04,07,54,21.30
2015,07,04,07,55,21.20
2015,07,04,07,56,21.10
2015,07,04,07,57,21.00
2015,07,04,07,58,20.90
2015,07,04,07,59,20.90
2015,07,04,08,00,20.70
2015,07,04,08,01,20.50
2015,07,04,08,02,20.40
2015,07,04,08,03,20.20
2015,07,04,08,04,20.00
2015,07,04,08,05,19.90
2015,07,04,08,06,19.80
2015,07,04,08,07,19.70
2015,07,04,08,08,19.60
2015,07,04,08,09,19.60
2015,07,04,08,10,19.70
2015,07,04,08,11,19.70
2015,07,04,08,12,19.70
2015,07,04,08,13,19.70
2015,07,04,08,14,19.70
2015,07,04,08,15,19.70
2015,07,04,08,16,19.70
2015,07,04,08,17,19.80
2015,07,04,08,18,19.80
2015,07,04,08,19,19.80
2015,07,04,08,20,19.80
2015,07,04,08,21,19.80
2015,07,04,08,22,19.90
2015,07,04,08,23,19.90
2015,07,04,08,24,20.10
2015,07,04,08,25,20.20
2015,07,04,08,26,20.30
2015,07,04,08,27,20.40
2015,07,04,08,28,20.50
2015,07,04,08,29,20.60
2015,07,04,08,30,20.70
2015,07,04,08,31,20.80
2015,07,04,08,32,21.00
2015,07,04,08,33,21.10
2015,07,04,08,34,21.20
2015,07,04,08,35,21.30
2015,07,04,08,36,21.10
2015,07,04,08,37,20.80
2015,07,04,08,38,20.60
2015,07,04,08,39,20.30
2015,07,04,08,40,20.00
2015,07,04,08,41,19.80
2015,07,04,08,42,19.70
2015,07,04,08,43,19.70
2015,07,04,08,44,19.70
2015,07,04,08,45,19.70
2015,07,04,08,46,19.80
2015,07,04,08,47,19.80
2015,07,04,08,48,19.90
2015,07,04,08,49,20.00
2015,07,04,08,50,20.20
2015,07,04,08,51,20.30
2015,07,04,08,52,20.40
2015,07,04,08,53,20.50
2015,07,04,08,54,20.60
2015,07,04,08,55,20.70
2015,07,04,08,56,20.80
2015,07,04,08,57,20.80
2015,07,04,08,58,20.90
2015,07,04,08,59,20.80
2015,07,04,09,00,20.90
2015,07,04,09,01,20.90
2015,07,04,09,02,20.90
2015,07,04,09,03,20.80
2015,07,04,09,04,20.80
2015,07,04,09,05,20.90
2015,07,04,09,06,20.80
2015,07,04,09,07,20.70
2015,07,04,09,08,20.70
2015,07,04,09,09,20.60
2015,07,04,09,10,20.50
2015,07,04,09,11,20.50
2015,07,04,09,12,20.50
2015,07,04,09,13,20.40
2015,07,04,09,14,20.40
2015,07,04,09,15,20.40
2015,07,04,09,16,20.40
2015,07,04,09,17,20.40
2015,07,04,09,18,20.50
2015,07,04,09,19,20.60
2015,07,04,09,20,20.70
2015,07,04,09,21,20.80
2015,07,04,09,22,20.90
2015,07,04,09,23,21.00
2015,07,04,09,24,21.10
2015,07,04,09,25,21.20
2015,07,04,09,26,21.30
2015,07,04,09,27,21.30
2015,07,04,09,28,21.30
2015,07,04,09,29,21.20
2015,07,04,09,30,21.20
2015,07,04,09,31,21.20
2015,07,04,09,32,21.20
2015,07,04,09,33,21.20
2015,07,04,09,34,21.20
2015,07,04,09,35,21.30
2015,07,04,09,36,21.20
2015,07,04,09,37,21.20
2015,07,04,09,38,21.20
2015,07,04,09,39,21.00
2015,07,04,09,40,20.90
2015,07,04,09,41,20.80
2015,07,04,09,42,20.80
2015,07,04,09,43,20.70
2015,07,04,09,44,20.70
2015,07,04,09,45,20.70
2015,07,04,09,46,20.70
2015,07,04,09,47,20.80
2015,07,04,09,48,20.90
2015,07,04,09,49,21.00
2015,07,04,09,50,21.10
2015,07,04,09,51,21.30
2015,07,04,09,52,21.30
2015,07,04,09,53,21.20
2015,07,04,09,54,21.10
2015,07,04,09,55,21.00
2015,07,04,09,56,21.00
2015,07,04,09,57,21.00
2015,07,04,09,58,21.10
2015,07,04,09,59,21.20
2015,07,04,10,00,21.30
2015,07,04,10,01,21.30
2015,07,04,10,02,21.30
2015,07,04,10,03,21.30
2015,07,04,10,04,21.20
2015,07,04,10,05,21.20
2015,07,04,10,06,21.20
2015,07,04,10,07,21.20
2015,07,04,10,08,21.20
2015,07,04,10,09,21.20
2015,07,04,10,10,21.30
2015,07,04,10,11,21.30
2015,07,04,10,12,21.40
2015,07,04,10,13,21.50
2015,07,04,10,14,21.60
2015,07,04,10,15,21.60
2015,07,04,10,16,21.60
2015,07,04,10,17,21.60
2015,07,04,10,18,21.60
2015,07,04,10,19,21.60
2015,07,04,10,20,21.60
2015,07,04,10,21,21.50
2015,07,04,10,22,21.40
2015,07,04,10,23,21.40
2015,07,04,10,24,21.50
2015,07,04,10,25,21.40
2015,07,04,10,26,21.30
2015,07,04,10,27,21.30
2015,07,04,10,28,21.30
2015,07,04,10,29,21.30
2015,07,04,10,30,21.30
2015,07,04,10,31,21.30
2015,07,04,10,32,21.40
2015,07,04,10,33,21.60
2015,07,04,10,34,21.60
2015,07,04,10,35,21.70
2015,07,04,10,36,21.80
2015,07,04,10,37,21.80
2015,07,04,10,38,21.80
2015,07,04,10,39,21.70
2015,07,04,10,40,21.70
2015,07,04,10,41,21.60
2015,07,04,10,42,21.60
2015,07,04,10,43,21.70
2015,07,04,10,44,21.80
2015,07,04,10,45,21.90
2015,07,04,10,46,22.00
2015,07,04,10,47,22.00
2015,07,04,10,48,22.00
2015,07,04,10,49,22.10
2015,07,04,10,50,22.10
2015,07,04,10,51,22.10
2015,07,04,10,52,22.10
2015,07,04,10,53,22.10
2015,07,04,10,54,22.20
2015,07,04,10,55,22.20
2015,07,04,10,56,22.20
2015,07,04,10,57,22.20
2015,07,04,10,58,22.20
2015,07,04,10,59,22.10
2015,07,04,11,00,22.20
2015,07,04,11,01,22.30
2015,07,04,11,02,22.30
2015,07,04,11,03,22.50
2015,07,04,11,04,22.60
2015,07,04,11,05,22.70
2015,07,04,11,06,22.80
2015,07,04,11,07,22.90
2015,07,04,11,08,22.90
2015,07,04,11,09,22.90
2015,07,04,11,10,22.80
2015,07,04,11,11,22.70
2015,07,04,11,12,22.70
2015,07,04,11,13,22.70
2015,07,04,11,14,22.80
2015,07,04,11,15,22.90
2015,07,04,11,16,23.10
2015,07,04,11,17,23.20
2015,07,04,11,18,23.20
2015,07,04,11,19,23.00
2015,07,04,11,20,22.90
2015,07,04,11,21,23.00
2015,07,04,11,22,23.10
2015,07,04,11,23,23.10
2015,07,04,11,24,23.00
2015,07,04,11,25,22.90
2015,07,04,11,26,22.80
2015,07,04,11,27,22.70
2015,07,04,11,28,22.70
2015,07,04,11,29,22.70
2015,07,04,11,30,22.80
2015,07,04,11,31,22.80
2015,07,04,11,32,22.90
2015,07,04,11,33,23.00
2015,07,04,11,34,23.00
2015,07,04,11,35,22.90
2015,07,04,11,36,22.90
2015,07,04,11,37,22.90
2015,07,04,11,38,22.90
2015,07,04,11,39,23.00
2015,07,04,11,40,23.20
2015,07,04,11,41,23.30
2015,07,04,11,42,23.30
2015,07,04,11,43,23.30
2015,07,04,11,44,23.20
2015,07,04,11,45,23.20
2015,07,04,11,46,23.30
2015,07,04,11,47,23.30
2015,07,04,11,48,23.40
2015,07,04,11,49,23.60
2015,07,04,11,50,23.70
2015,07,04,11,51,23.50
2015,07,04,11,52,23.40
2015,07,04,11,53,23.30
2015,07,04,11,54,23.30
2015,07,04,11,55,23.40
2015,07,04,11,56,23.40
2015,07,04,11,57,23.40
2015,07,04,11,58,23.30
2015,07,04,11,59,23.30
2015,07,04,12,00,23.30
2015,07,04,12,01,23.30
2015,07,04,12,02,23.30
2015,07,04,12,03,23.40
2015,07,04,12,04,23.50
2015,07,04,12,05,23.60
2015,07,04,12,06,23.70
2015,07,04,12,07,23.60
2015,07,04,12,08,23.50
2015,07,04,12,09,23.50
2015,07,04,12,10,23.60
2015,07,04,12,11,23.60
2015,07,04,12,12,23.60
2015,07,04,12,13,23.70
2015,07,04,12,14,23.80
2015,07,04,12,15,23.80
2015,07,04,12,16,23.80
2015,07,04,12,17,23.90
2015,07,04,12,18,23.90
2015,07,04,12,19,23.90
2015,07,04,12,20,23.80
2015,07,04,12,21,23.70
2015,07,04,12,22,23.60
2015,07,04,12,23,23.50
2015,07,04,12,24,23.50
2015,07,04,12,25,23.60
2015,07,04,12,26,23.70
2015,07,04,12,27,23.70
2015,07,04,12,28,23.80
2015,07,04,12,29,23.90
2015,07,04,12,30,23.90
2015,07,04,12,31,23.90
2015,07,04,12,32,23.90
2015,07,04,12,33,24.10
2015,07,04,12,34,24.10
2015,07,04,12,35,24.20
2015,07,04,12,36,24.30
2015,07,04,12,37,24.20
2015,07,04,12,38,24.10
2015,07,04,12,39,24.10
2015,07,04,12,40,24.10
2015,07,04,12,41,24.20
2015,07,04,12,42,24.20
2015,07,04,12,43,24.30
2015,07,04,12,44,24.30
2015,07,04,12,45,24.20
2015,07,04,12,46,24.20
2015,07,04,12,47,24.20
2015,07,04,12,48,24.20
2015,07,04,12,49,24.10
2015,07,04,12,50,24.10
2015,07,04,12,51,24.10
2015,07,04,12,52,24.10
2015,07,04,12,53,24.20
2015,07,04,12,54,24.30
2015,07,04,12,55,24.50
2015,07,04,12,56,24.60
2015,07,04,12,57,24.70
2015,07,04,12,58,24.70
2015,07,04,12,59,24.70
2015,07,04,13,00,24.80
2015,07,04,13,01,24.80
2015,07,04,13,02,24.90
2015,07,04,13,03,24.90
2015,07,04,13,04,25.00
2015,07,04,13,05,25.10
2015,07,04,13,06,25.20
2015,07,04,13,07,25.10
2015,07,04,13,08,24.90
2015,07,04,13,09,24.80
2015,07,04,13,10,24.70
2015,07,04,13,11,24.80
2015,07,04,13,12,24.80
2015,07,04,13,13,24.90
2015,07,04,13,14,25.00
2015,07,04,13,15,25.10
2015,07,04,13,16,25.20
2015,07,04,13,17,25.20
2015,07,04,13,18,25.30
2015,07,04,13,19,25.30
2015,07,04,13,20,25.30
2015,07,04,13,21,25.10
2015,07,04,13,22,24.90
2015,07,04,13,23,24.90
2015,07,04,13,24,24.80
2015,07,04,13,25,24.70
2015,07,04,13,26,24.60
2015,07,04,13,27,24.60
2015,07,04,13,28,24.60
2015,07,04,13,29,24.60
2015,07,04,13,30,24.50
2015,07,04,13,31,24.50
2015,07,04,13,32,24.60
2015,07,04,13,33,24.60
2015,07,04,13,34,24.60
2015,07,04,13,35,24.50
2015,07,04,13,36,24.50
2015,07,04,13,37,24.60
2015,07,04,13,38,24.70
2015,07,04,13,39,24.80
2015,07,04,13,40,24.80
2015,07,04,13,41,24.90
2015,07,04,13,42,25.00
2015,07,04,13,43,25.00
2015,07,04,13,44,25.00
2015,07,04,13,45,25.00
2015,07,04,13,46,25.00
2015,07,04,13,47,25.10
2015,07,04,13,48,25.20
2015,07,04,13,49,25.20
2015,07,04,13,50,25.10
2015,07,04,13,51,25.20
2015,07,04,13,52,25.20
2015,07,04,13,53,25.40
2015,07,04,13,54,25.40
2015,07,04,13,55,25.60
2015,07,04,13,56,25.70
2015,07,04,13,57,25.80
2015,07,04,13,58,25.80
2015,07,04,13,59,25.70
2015,07,04,14,00,25.40
2015,07,04,14,01,25.20
2015,07,04,14,02,25.00
2015,07,04,14,03,24.80
2015,07,04,14,04,24.80
2015,07,04,14,05,24.90
2015,07,04,14,06,25.00
2015,07,04,14,07,25.20
2015,07,04,14,08,25.30
2015,07,04,14,09,25.40
2015,07,04,14,10,25.40
2015,07,04,14,11,25.20
2015,07,04,14,12,25.20
2015,07,04,14,13,25.20
2015,07,04,14,14,25.10
2015,07,04,14,15,25.00
2015,07,04,14,16,25.00
2015,07,04,14,17,25.10
2015,07,04,14,18,25.20
2015,07,04,14,19,25.30
2015,07,04,14,20,25.40
2015,07,04,14,21,25.50
2015,07,04,14,22,25.30
2015,07,04,14,23,25.20
2015,07,04,14,24,25.00
2015,07,04,14,25,24.90
2015,07,04,14,26,24.80
2015,07,04,14,27,24.80
2015,07,04,14,28,24.80
2015,07,04,14,29,24.80
2015,07,04,14,30,24.70
2015,07,04,14,31,24.70
2015,07,04,14,32,24.80
2015,07,04,14,33,25.00
2015,07,04,14,34,25.20
2015,07,04,14,35,25.30
2015,07,04,14,36,25.50
2015,07,04,14,37,25.60
2015,07,04,14,38,25.50
2015,07,04,14,39,25.40
2015,07,04,14,40,25.40
2015,07,04,14,41,25.40
2015,07,04,14,42,25.50
2015,07,04,14,43,25.50
2015,07,04,14,44,25.60
2015,07,04,14,45,25.60
2015,07,04,14,46,25.60
2015,07,04,14,47,25.80
2015,07,04,14,48,25.90
2015,07,04,14,49,26.10
2015,07,04,14,50,26.10
2015,07,04,14,51,26.00
2015,07,04,14,52,25.90
2015,07,04,14,53,25.90
2015,07,04,14,54,25.60
2015,07,04,14,55,25.30
2015,07,04,14,56,25.10
2015,07,04,14,57,24.90
2015,07,04,14,58,24.90
2015,07,04,14,59,24.90
2015,07,04,15,00,24.90
2015,07,04,15,01,25.00
2015,07,04,15,02,24.90
2015,07,04,15,03,25.00
2015,07,04,15,04,25.10
2015,07,04,15,05,25.20
2015,07,04,15,06,25.30
2015,07,04,15,07,25.30
2015,07,04,15,08,25.40
2015,07,04,15,09,25.40
2015,07,04,15,10,25.20
2015,07,04,15,11,25.10
2015,07,04,15,12,25.10
2015,07,04,15,13,25.10
2015,07,04,15,14,25.20
2015,07,04,15,15,25.30
2015,07,04,15,16,25.30
2015,07,04,15,17,25.40
2015,07,04,15,18,25.50
2015,07,04,15,19,25.60
2015,07,04,15,20,25.80
2015,07,04,15,21,26.00
2015,07,04,15,22,26.20
2015,07,04,15,23,26.30
2015,07,04,15,24,26.40
2015,07,04,15,25,26.50
2015,07,04,15,26,26.60
2015,07,04,15,27,26.60
2015,07,04,15,28,26.60
2015,07,04,15,29,26.60
2015,07,04,15,30,26.70
2015,07,04,15,31,26.70
2015,07,04,15,32,26.80
2015,07,04,15,33,26.80
2015,07,04,15,34,26.80
2015,07,04,15,35,26.80
2015,07,04,15,36,26.60
2015,07,04,15,37,26.50
2015,07,04,15,38,26.40
2015,07,04,15,39,26.40
2015,07,04,15,40,26.40
2015,07,04,15,41,26.40
2015,07,04,15,42,26.20
2015,07,04,15,43,26.10
2015,07,04,15,44,26.10
2015,07,04,15,45,26.10
2015,07,04,15,46,26.10
2015,07,04,15,47,26.20
2015,07,04,15,48,26.30
2015,07,04,15,49,26.40
2015,07,04,15,50,26.50
2015,07,04,15,51,26.60
2015,07,04,15,52,26.70
2015,07,04,15,53,26.80
2015,07,04,15,54,26.90
2015,07,04,15,55,26.80
2015,07,04,15,56,26.70
2015,07,04,15,57,26.80
2015,07,04,15,58,26.80
2015,07,04,15,59,26.70
2015,07,04,16,00,26.60
2015,07,04,16,01,26.60
2015,07,04,16,02,26.50
2015,07,04,16,03,26.50
2015,07,04,16,04,26.50
2015,07,04,16,05,26.40
2015,07,04,16,06,26.40
2015,07,04,16,07,26.40
2015,07,04,16,08,26.40
2015,07,04,16,09,26.30
2015,07,04,16,10,26.30
2015,07,04,16,11,26.40
2015,07,04,16,12,26.40
2015,07,04,16,13,26.40
2015,07,04,16,14,26.30
2015,07,04,16,15,26.10
2015,07,04,16,16,26.00
2015,07,04,16,17,26.00
2015,07,04,16,18,25.90
2015,07,04,16,19,26.00
2015,07,04,16,20,26.00
2015,07,04,16,21,26.10
2015,07,04,16,22,26.20
2015,07,04,16,23,26.20
2015,07,04,16,24,26.30
2015,07,04,16,25,26.40
2015,07,04,16,26,26.50
2015,07,04,16,27,26.60
2015,07,04,16,28,26.70
2015,07,04,16,29,26.80
2015,07,04,16,30,27.00
2015,07,04,16,31,27.10
2015,07,04,16,32,27.10
2015,07,04,16,33,27.10
2015,07,04,16,34,27.20
2015,07,04,16,35,27.30
2015,07,04,16,36,27.30
2015,07,04,16,37,27.30
2015,07,04,16,38,27.30
2015,07,04,16,39,27.30
2015,07,04,16,40,27.30
2015,07,04,16,41,27.30
2015,07,04,16,42,27.30
2015,07,04,16,43,27.30
2015,07,04,16,44,27.30
2015,07,04,16,45,27.30
2015,07,04,16,46,27.30
2015,07,04,16,47,27.30
2015,07,04,16,48,27.30
2015,07,04,16,49,27.30
2015,07,04,16,50,27.40
2015,07,04,16,51,27.40
2015,07,04,16,52,27.60
2015,07,04,16,53,27.60
2015,07,04,16,54,27.60
2015,07,04,16,55,27.60
2015,07,04,16,56,27.40
2015,07,04,16,57,27.30
2015,07,04,16,58,27.30
2015,07,04,16,59,27.30
2015,07,04,17,00,27.40
2015,07,04,17,01,27.50
2015,07,04,17,02,27.60
2015,07,04,17,03,27.70
2015,07,04,17,04,27.90
2015,07,04,17,05,27.90
2015,07,04,17,06,27.90
2015,07,04,17,07,27.90
2015,07,04,17,08,27.90
2015,07,04,17,09,27.80
2015,07,04,17,10,27.70
2015,07,04,17,11,27.60
2015,07,04,17,12,27.50
2015,07,04,17,13,27.50
2015,07,04,17,14,27.50
2015,07,04,17,15,27.30
2015,07,04,17,16,27.30
2015,07,04,17,17,27.40
2015,07,04,17,18,27.40
2015,07,04,17,19,27.50